This demonstration page uses our WeatherBlox Daily Observations layout. Learn more.

Left ArrowRight Arrow

Hourly Observations for July 2, 2022

Temp ( °F °C ) Dew Point ( °F °C ) Humidity (%) Winds ( mph kmh ) Pressure ( in mb ) Visibility ( mi km ) Precip ( " mm )
12:53 am 00:53 Clear 59 15 49 9.4 69 69 E 5 7 29.98 1015 10 16 0.00 0.00
1:53 am 01:53 Clear 57 13.9 48 8.9 72 72 Calm 29.98 1015 10 16 0.00 0.00
2:53 am 02:53 Clear 50 10 46 7.8 86 86 Calm 30.01 1016 10 16 0.00 0.00
3:53 am 03:53 Clear 50 10 46 7.8 86 86 Calm 30.00 1016 10 16 0.00 0.00
4:53 am 04:53 Clear 50 10 46 7.8 86 86 Calm 30.00 1016 10 16 0.00 0.00
5:53 am 05:53 Sunny 49 9.4 46 7.8 90 90 Calm 30.02 1017 10 16 0.00 0.00
6:53 am 06:53 Partly Cloudy 53 11.7 49 9.4 86 86 SW 5 7 30.09 1019 10 16 0.00 0.00
7:53 am 07:53 Sunny 58 14.4 50 10 75 75 ENE 3 6 30.06 1018 10 16 0.00 0.00
8:53 am 08:53 Mostly Sunny 66 18.9 52 11.1 61 61 NNE 5 7 30.05 1018 10 16 0.00 0.00
9:42 am 09:42 Cloudy with Light Rain 64 17.8 52 11.1 65 65 ENE 6 9 29.90 1012 10 16 0.00 0.00
9:53 am 09:53 Mostly Cloudy 63 17.2 53 11.7 70 70 N 7 11 30.06 1018 10 16 0.00 0.00
10:53 am 10:53 Partly Cloudy 73 22.8 50 10 44 44 ENE 12 19 30.02 1017 10 16 0.00 0.00
11:53 am 11:53 Sunny 76 24.4 47 8.3 36 36 ESE 12 19 29.99 1016 10 16 0.00 0.00
12:53 pm 12:53 Sunny 80 26.7 48 8.9 33 33 ESE 9 15 29.96 1015 10 16 0.00 0.00
1:53 pm 13:53 Sunny 83 28.3 48 8.9 30 30 NNE 9 15 29.93 1014 10 16 0.00 0.00
2:53 pm 14:53 Sunny 86 30 48 8.9 27 27 VRB 6 9 29.91 1013 10 16 0.00 0.00
3:53 pm 15:53 Sunny 85 29.4 45 7.2 25 25 VRB 3 6 29.89 1012 10 16 0.00 0.00
4:53 pm 16:53 Partly Cloudy 78 25.6 40 4.4 26 26 SSE 25 41 29.93 1014 10 16 0.00 0.00
5:53 pm 17:53 Sunny 76 24.4 46 7.8 35 35 SSE 17 28 29.93 1014 10 16 0.00 0.00
6:53 pm 18:53 Sunny 77 25 44 6.7 31 31 S 17 28 29.88 1012 10 16 0.00 0.00
7:53 pm 19:53 Sunny 74 23.3 46 7.8 37 37 S 6 9 29.88 1012 10 16 0.00 0.00
8:53 pm 20:53 Clear 67 19.4 45 7.2 45 45 SSE 6 9 29.88 1012 10 16 0.00 0.00
9:53 pm 21:53 Clear 63 17.2 46 7.8 54 54 Calm 29.91 1013 10 16 0.00 0.00
10:53 pm 22:53 Clear 63 17.2 47 8.3 56 56 Calm 29.89 1012 10 16 0.00 0.00
11:53 pm 23:53 Clear 57 13.9 46 7.8 67 67 SSW 5 7 29.91 1013 10 16 0.00 0.00

Powered by AerisWeather